Flag for Austria Weather past 2 weeks in Zwettl, Lower Austria, Austria

Now
76 °F

Mild.


Feels Like: 78 °F
Forecast: 52 / 66 °F
Wind: 2 mph from Northeast

Location: Retz

Current Time: Sep 1, 2015 at 2:14:02 AM

Latest Report: Sep 1, 2015 at 1:00 AM


Visibility: N/A

Pressure: 29.82 "Hg (28.08 "Hg at 524m altitude)

Humidity: 39%

Dew point: 49 °F

Location of ZwettlLocation

Historic Weather in Zwettl — Graph

°F

Zwettl temperature yesterday

Maximum temperature yesterday: 92 °F (at 5:00 PM)
Minimum temperature yesterday: 67 °F (at 6:00 AM)
Average temperature yesterday: 79 °F

Past Weeks' High & Low Weather Summary

 TemperatureHumidityPressure
High93 °F (Aug 30, 6:00 PM)98% (Aug 17, 10:00 AM)30.23 "Hg (Aug 17, 10:00 AM)
Low55 °F (Aug 26, 7:00 AM)22% (Aug 31, 5:00 PM)29.70 "Hg (Aug 17, 7:00 AM)
Average68 °F67%30.00 "Hg
* Reported Midnight between Aug 16 and Aug 17 — Midnight between Aug 31 and Sep 1, Zwettl, Weather by CustomWeather, © 2015

Note: Actual official high and low records may vary slightly from our data, if they occured in-between our weather recording intervals... More about our weather records

Advertising

Zwettl weather history for previous 24 hours

 ConditionsComfort  
Time TempWeatherWind HumidityBarometerVisibility
12:00 AM
Tue, Sep 1
77 °FPleasantly warm.2 mph36%29.82 "HgN/A
10:00 PM
Mon, Aug 31
81 °FPleasantly warm.1 mph32%29.82 "HgN/A
9:00 PM82 °FPleasantly warm.1 mph30%29.83 "HgN/A
8:00 PM84 °FClear.2 mph28%29.80 "Hg11 mi
7:00 PM87 °FPleasantly warm.3 mph28%29.81 "HgN/A
6:00 PM90 °FHot.3 mph25%29.81 "HgN/A
5:00 PM92 °FHot.2 mph22%29.82 "HgN/A
4:00 PM92 °FHot.5 mph28%29.84 "HgN/A
3:00 PM90 °FHot.3 mph33%29.87 "HgN/A
2:00 PM87 °FSunny.3 mph38%29.89 "Hg11 mi
1:00 PM85 °FWarm.2 mph47%29.91 "HgN/A
12:00 PM81 °FWarm.2 mph57%29.93 "HgN/A
11:00 AM78 °FWarm.1 mph63%29.95 "HgN/A
10:00 AM75 °FMild.3 mph67%29.96 "HgN/A
9:00 AM72 °FMild.3 mph68%29.97 "HgN/A
8:00 AM70 °FSunny.3 mph72%29.97 "Hg8 mi
7:00 AM67 °FSunny.3 mph75%29.97 "Hg7 mi
6:00 AM67 °FMild.3 mph76%29.97 "HgN/A
5:00 AM69 °FMild.3 mph71%29.97 "HgN/A
4:00 AM71 °FMild.3 mph65%29.97 "HgN/A
3:00 AM73 °FMild.5 mph63%29.98 "HgN/A
2:00 AM74 °FMild.5 mph62%29.99 "HgN/A
Weather by CustomWeather, © 2015

See weather overviewHow to use our weather pages